Regional Weather Roundup
Issued by NWS Cleveland, OH

Home | Current Version | Previous Version | Text Only | Print | Product List | Glossary Off
Versions: 1 2 3 4 5 6 7 8 9 10 11 12 13 14 15 16 17 18 19 20 21 22 23 24 25 26 27 28 29 30 31 32 33 34 35 36 37 38 39 40 41 42 43 44 45 46 47 48 49 50

000
ASUS41 KCLE 010410
RWRCLE
OHIO REGIONAL WEATHER ROUNDUP
NATIONAL WEATHER SERVICE WILMINGTON, OH
1200 AM EDT TUE SEP 01 2015

NOTE: "FAIR" INDICATES FEW OR NO CLOUDS BELOW 12,000 FEET WITH NO
SIGNIFICANT WEATHER AND/OR OBSTRUCTIONS TO VISIBILITY.

OHZ001>008-015>018-024>027-034-035-043-044-010500-
   NORTHWEST OHIO

CITY           SKY/WX    TMP DP  RH WIND       PRES   REMARKS
DEFIANCE       CLEAR     72  69  90 CALM      30.08S FOG
FINDLAY        CLEAR     74  69  85 S3        30.08S
TOLEDO EXPRESS CLEAR     69  69 100 CALM      30.07S FOG
TOLEDO EXEC    CLEAR     73  67  81 CALM      30.08S
LIMA           CLEAR     73  68  84 S6        30.10S
$$

OHZ009>014-019>023-028>033-038-089-010500-
   NORTHEAST OHIO

CITY           SKY/WX    TMP DP  RH WIND       PRES   REMARKS
CLE-HOPKINS    PTCLDY    72  67  84 S3        30.10S
CLE-LAKEFRONT  CLEAR     76  66  71 SE6       30.07R
CUY CO. ARPT   NOT AVBL
LORAIN-ELYRIA  CLEAR     69  66  90 CALM      30.09S FOG
ASHTABULA      CLEAR     63  62  97 CALM      30.10S FOG
AKRON-CANTON   CLEAR     73  66  78 CALM      30.11S
WOOSTER        CLEAR     67  65  93 CALM      30.12R FOG
MANSFIELD      CLEAR     71  67  87 S5        30.12S
YOUNGSTOWN     PTCLDY    66  64  93 CALM      30.11R
$$

OHZ042-051>053-060>062-070>072-077>081-010500-
  SOUTHWEST OHIO

CITY           SKY/WX    TMP DP  RH WIND       PRES   REMARKS
CINC-COVINGTON CLEAR     72  66  81 CALM      30.11S
CINC-LUNKEN    CLEAR     69  68  96 CALM      30.11R
HAMILTON       CLEAR     70  68  93 CALM      30.11S
DAYTON         PTCLDY    71  68  90 SW5       30.12S
WRIGHT-PAT AFB CLEAR     71  69  94 CALM      30.11S
DAYTON GENERAL CLEAR     73  66  78 CALM      30.11S
WILMINGTON     CLEAR     67  65  93 S3        30.12S FOG
$$

OHZ036-037-039>041-045>050-054>059-063>069-073>076-082>088-010500-
  CENTRAL AND SOUTHEAST OHIO

CITY           SKY/WX    TMP DP  RH WIND       PRES   REMARKS
COLUMBUS       PTCLDY    72  67  84 CALM      30.10S
OSU AIRPORT    CLEAR     74  68  81 SW5       30.11R
BOLTON FIELD   CLEAR     70  68  93 CALM      30.11S
RICKENBACK AFB CLEAR     71  67  88 CALM      30.10S
NEWARK         CLEAR     68  66  93 CALM      30.11R FOG
MARION         CLEAR     73  68  84 CALM      30.11R
LANCASTER      CLEAR     66  64  93 CALM      30.11S
ZANESVILLE     NOT AVBL
NEW PHILLY     CLEAR     69  68  96 CALM      30.11S FOG
$$



USA.gov is the U.S. government's official web portal to all federal, state and local government web resources and services.